Location: La Tine
(46.4708°N, 7.0525°E)
Time: 00:36:26
(UTC+00:00)

Cosmos 1833 Rocket - Pass Details

Date: 17 January 2021
Orbit: 833 x 839 km, 71.0° (Epoch: 03 March)

Event Time Altitude Azimuth Distance (km) Brightness Sun altitude
Rises 18:38:08 0° 339° (NNW) 3,391 6.0 -24.3°
Reaches altitude 10° 18:41:07 10° 354° (N) 2,454 5.1 -24.8°
Enters shadow 18:42:52 17° 9° (N) 2,021 4.5 -25.1°
